{"data":{"norad_id":69807,"intl_designator":"2026-153H","name":"QIANFAN-208","alt_names":[],"object_type":"PAYLOAD","status":"ACTIVE","operator":null,"country":"PRC","launch_date":"2026-07-04","launch_site_code":"TAISC","launch_vehicle":null,"mission":null,"orbit_class":"UNKNOWN","rcs_meters":null,"size_class":null,"mass_kg":null,"dimensions":null,"purposes":[],"wikipedia_slug":null,"has_3d_model":false,"image_url":null,"decayed_at":null,"tle_current":{"epoch":"2026-09-20T05:06:35.557920Z","epoch_age_seconds":46480,"freshness":"FRESH","line1":"1 69807U 26153H   26263.21291155 -.00000020  00000+0 -21793-4 0  9991","line2":"2 69807  88.9975 351.4887 0005960  32.6387 327.5161 14.03357272 11026","mean_motion":14.03357272,"eccentricity":0.000596,"inclination_deg":88.9975,"raan_deg":351.4887,"arg_perigee_deg":32.6387,"mean_anomaly_deg":327.5161,"bstar":-2.1793e-5,"rev_number":1102,"period_min":102.61107621923,"perigee_km":877.8655223562,"apogee_km":886.51983533338,"semimajor_km":7260.3296788448,"source":"CELESTRAK","updated_at":"2026-09-20T09:00:25.120655Z"}}}